EW6223 Weather Reports


Display with metric or nautical units.
time (UTC)temp
F
wind
direction
speed
MPH
gust
MPH
rain 1hr
in
rain 24hr
in
rain mn
in
humidity
%
barometer
mb
20260508013035 83 113 0.0 3.0 0.00 0.00 0.00 39 994.9
20260508011534 86 16 1.0 5.0 0.00 0.00 0.00 32 997.3
20260508010045 85 250 2.0 7.0 0.00 0.00 0.00 29 994.7
20260508004532 85 290 3.0 7.0 0.00 0.00 0.00 30 995.4
20260508003032 84 261 3.0 7.0 0.00 0.00 0.00 34 996.0
20260508001505 84 264 2.0 5.0 0.00 0.00 0.00 40 994.5
20260508000001 82 239 1.0 5.0 0.00 0.00 0.00 48 989.6
20260507234603 82 233 2.0 5.0 0.00 0.00 0.00 46 989.6
20260507233058 81 213 3.0 5.0 0.00 0.00 0.00 48 990.0
20260507231557 83 217 3.0 6.0 0.00 0.00 0.00 42 989.3
20260507230056 84 200 3.0 6.0 0.00 0.00 0.00 37 988.7
20260507224554 84 228 3.0 5.0 0.00 0.00 0.00 34 992.7
20260507223055 86 223 3.0 6.0 0.00 0.00 0.00 29 986.0
20260507221552 85 217 3.0 7.0 0.00 0.00 0.00 28 993.0
20260507220050 84 208 3.0 6.0 0.00 0.00 0.00 42 999.6
20260507214550 84 228 3.0 6.0 0.00 0.00 0.00 43 997.6
20260507213048 84 250 3.0 9.0 0.00 0.00 0.00 44 990.2
20260507211552 84 199 2.0 6.0 0.00 0.00 0.00 46 990.2
20260507210046 85 204 3.0 7.0 0.00 0.00 0.00 45 998.2
20260507204544 85 213 2.0 6.0 0.00 0.00 0.00 48 998.2
20260507203043 85 208 3.0 7.0 0.00 0.00 0.00 51 1002.9
20260507201543 86 177 3.0 6.0 0.00 0.00 0.00 51 1004.4
20260507200041 85 215 4.0 6.0 0.00 0.00 0.00 49 1005.3
20260507194539 85 202 3.0 5.0 0.00 0.00 0.00 53 999.5
20260507193037 85 225 2.0 5.0 0.00 0.00 0.00 56 1004.6
20260507191533 84 244 2.0 6.0 0.00 0.00 0.00 58 1004.9
20260507190028 83 183 2.0 5.0 0.00 0.00 0.00 61 1003.4
20260507184527 83 213 3.0 5.0 0.00 0.00 0.00 63 1000.5
20260507183035 83 167 2.0 6.0 0.00 0.00 0.00 65 999.7
20260507181519 83 218 2.0 5.0 0.00 0.00 0.00 67 998.6
20260507180015 83 184 3.0 5.0 0.00 0.00 0.00 65 997.2
20260507174516 83 154 1.0 4.0 0.00 0.00 0.00 67 997.2
20260507173045 82 210 1.0 5.0 0.00 0.00 0.00 69 1001.8
20260507171553 82 198 2.0 4.0 0.00 0.00 0.00 71 1001.2
20260507170036 81 135 1.0 4.0 0.00 0.00 0.00 72 1005.6
20260507164544 81 141 2.0 4.0 0.00 0.00 0.00 71 1005.4
20260507163043 82 85 1.0 5.0 0.00 0.00 0.00 72 1005.4
20260507161539 81 87 1.0 5.0 0.00 0.00 0.00 72 1001.5
20260507160039 80 143 1.0 4.0 0.00 0.00 0.00 74 999.3
20260507154523 79 114 0.0 3.0 0.00 0.00 0.00 75 1000.0
20260507153019 79 121 1.0 3.0 0.00 0.00 0.00 74 998.9
20260507151519 79 85 1.0 4.0 0.00 0.00 0.00 75 999.9
20260507150020 78 79 2.0 6.0 0.00 0.00 0.00 74 1006.3
20260507144521 77 75 2.0 8.0 0.00 0.00 0.00 75 1005.0
20260507143013 77 82 2.0 4.0 0.00 0.00 0.00 75 1004.8
20260507141515 77 61 3.0 5.0 0.00 0.00 0.00 76 1002.4
20260507140006 0 0.0 0.0 0.00 0.00 0.00 1005.7
20260507134600 0 0.0 0.0 0.00 0.00 0.00 1005.7
20260507133101 0 0.0 0.0 0.00 0.00 0.00 1005.6
20260507131551 0 0.0 0.0 0.00 0.00 0.00 1005.4
20260507130058 0 0.0 0.0 0.00 0.00 0.00 1005.2
20260507124557 0 0.0 0.0 0.00 0.00 0.00 1004.9
20260507123036 0 0.0 0.0 0.00 0.00 0.00 1004.6
20260507121535 0 0.0 0.0 0.00 0.00 0.00 1004.6
20260507120025 0 0.0 0.0 0.00 0.00 0.00 1004.6
20260507114523 0 0.0 0.0 0.00 0.00 0.00 1004.5
20260507113019 0 0.0 0.0 0.00 0.00 0.00 1004.2
20260507111515 0 0.0 0.0 0.00 0.00 0.00 1004.0
20260507110017 0 0.0 0.0 0.00 0.00 0.00 1004.0
20260507104503 0 0.0 0.0 0.00 0.00 0.00 1002.5
20260507103058 0 0.0 0.0 0.00 0.00 0.00 1002.8
20260507101557 0 0.0 0.0 0.00 0.00 0.00 1002.4
20260507100047 0 0.0 0.0 0.00 0.00 0.00 1002.5
20260507094544 0 0.0 0.0 0.00 0.00 0.00 1003.2
20260507093041 0 0.0 0.0 0.00 0.00 0.00 1003.1
20260507091540 75 71 0.0 3.0 0.00 0.00 0.00 75 1003.1
20260507090030 75 86 1.0 3.0 0.00 0.00 0.00 75 1003.3
20260507084532 74 86 0.0 2.0 0.00 0.00 0.00 76 1003.4
20260507083029 74 85 0.0 0.0 0.00 0.00 0.00 77 1004.4
20260507081527 74 85 0.0 2.0 0.00 0.00 0.00 79 1003.9
20260507080024 75 86 0.0 0.0 0.00 0.00 0.00 82 1003.7
20260507074524 75 85 0.0 0.0 0.00 0.00 0.00 82 1003.6
20260507073022 75 86 0.0 0.0 0.00 0.00 0.00 81 1005.1
20260507071521 75 86 0.0 0.0 0.00 0.00 0.00 81 1004.6
20260507070020 75 86 0.0 1.0 0.00 0.00 0.00 81 1004.1
20260507064517 75 85 0.0 0.0 0.00 0.00 0.00 80 1005.5
20260507063029 76 85 0.0 0.0 0.00 0.00 0.00 80 1000.0
20260507061516 76 86 0.0 0.0 0.00 0.00 0.00 79 1004.1
20260507060032 76 86 0.0 0.0 0.00 0.00 0.00 79 1003.8
20260507054545 76 86 0.0 0.0 0.00 0.00 0.00 78 1005.2
20260507053043 76 85 0.0 0.0 0.00 0.00 0.00 79 1004.7
20260507051540 76 86 0.0 0.0 0.00 0.00 0.00 78 1002.8
20260507050039 76 86 0.0 0.0 0.00 0.00 0.00 78 1004.0
20260507044540 77 85 0.0 0.0 0.00 0.00 0.00 77 1002.5
20260507043038 77 86 0.0 0.0 0.00 0.00 0.00 77 1003.1
20260507041532 77 86 0.0 0.0 0.00 0.00 0.00 76 999.1
20260507040034 77 86 0.0 0.0 0.00 0.00 0.00 76 996.5
20260507034535 77 86 0.0 1.0 0.00 0.00 0.00 75 997.2
20260507033029 77 86 0.0 0.0 0.00 0.00 0.00 75 997.2
20260507031527 77 86 0.0 2.0 0.00 0.00 0.00 75 1004.9
20260507030027 78 85 1.0 3.0 0.00 0.00 0.00 74 986.9
20260507024527 78 86 1.0 4.0 0.00 0.00 0.00 74 986.5
20260507023025 78 69 2.0 4.0 0.00 0.00 0.00 74 988.7
20260507021523 78 73 1.0 6.0 0.00 0.00 0.00 73 995.8
20260507020030 78 79 2.0 4.0 0.00 0.00 0.00 72 1000.0
20260507014522 79 81 2.0 4.0 0.00 0.00 0.00 71 999.2